Theta_e
321 321 321 322 322 322 322 322 322 323 323 323 322 323 323 323 322 323 323 323 323 324 324 324 325 325 324 325 326 324 319 304 303 302 301 302 311 329 332 336 337 334 323 304 304 304 301 299 303 300 302 300 301 302 301 304 300 302 296 288 288 287 287 289 291 290 292 293 294 293 291 294 294 294 296 296 296 294 294 295 296 295 295 298 295 297 299 302
320 320 320 321 321 321 321 322 322 322 323 322 322 322 322 323 323 323 323 323 323 323 323 324 324 325 325 324 325 323 311 304 303 301 303 314 330 336 338 336 338 331 317 306 302 298 301 299 300 297 301 301 301 302 302 302 304 296 289 289 290 286 292 293 291 291 291 294 292 292 291 293 296 295 296 296 294 293 296 295 292 297 298 299 297 297 300 303
320 320 320 320 321 321 321 321 321 322 322 322 322 322 322 322 322 322 323 323 323 323 323 324 324 324 325 325 324 320 311 303 297 300 304 325 334 338 339 336 332 329 309 305 300 299 302 299 298 299 297 298 296 300 300 300 303 295 294 291 288 291 291 291 291 293 293 294 295 294 294 292 294 294 295 296 296 292 294 297 295 294 299 300 300 298 299 302
320 320 319 319 320 320 321 321 321 321 321 322 322 322 322 322 322 323 323 323 323 323 323 324 324 324 323 325 323 312 302 298 296 300 303 327 337 338 339 336 331 314 303 302 300 298 298 298 296 299 298 298 294 298 300 300 300 296 295 291 293 291 293 295 292 294 293 292 293 293 291 292 294 292 294 292 295 297 298 299 299 300 299 300 298 297 298 300
319 319 319 319 319 320 320 321 321 321 321 321 321 321 321 322 321 322 323 323 323 323 323 323 324 324 324 324 316 305 300 292 294 300 301 325 337 338 338 335 325 303 303 299 301 298 298 299 298 295 296 294 294 296 297 297 298 296 297 296 294 290 293 296 294 292 293 290 291 290 292 297 293 292 292 294 294 297 300 297 298 301 301 299 298 296 297 299
319 318 319 319 319 320 320 321 321 321 320 320 320 321 321 321 321 322 322 322 322 323 323 323 323 323 324 323 307 301 298 288 301 302 330 336 337 339 337 329 319 302 303 300 299 298 302 299 299 298 294 294 293 294 292 297 298 295 294 296 296 293 296 294 292 292 292 292 291 292 295 293 295 295 292 293 296 301 304 301 299 299 299 299 297 297 296 298
320 319 318 318 319 319 320 320 320 320 320 320 320 321 321 321 321 321 321 321 322 322 323 323 323 323 323 317 300 299 297 295 296 303 331 336 338 337 330 326 316 304 302 301 300 301 295 296 297 292 290 291 291 292 292 294 297 296 294 291 294 295 296 295 298 291 290 291 295 293 293 295 295 296 293 293 298 301 304 302 300 299 297 294 296 297 298 299
319 319 318 318 318 319 320 320 319 319 320 320 320 320 321 321 321 321 321 321 321 322 323 322 322 323 322 300 304 294 295 297 301 308 332 334 327 325 318 307 305 304 303 302 299 296 295 296 297 292 294 294 292 293 293 295 295 295 295 293 294 293 294 294 293 292 292 293 295 293 295 297 297 295 296 298 299 300 301 301 299 298 296 294 294 297 297 297
320 319 318 318 318 319 319 319 319 319 320 320 320 320 321 321 321 321 321 321 321 321 322 322 322 322 320 298 295 294 293 299 299 304 320 316 311 310 310 310 305 305 299 297 299 298 300 296 295 295 295 291 292 293 292 293 292 294 297 294 292 293 293 294 292 292 292 294 293 293 294 297 296 293 293 298 300 300 300 299 298 295 295 295 295 296 296 296
320 319 318 318 319 319 319 319 319 320 320 320 320 320 320 320 320 320 321 321 321 321 321 322 322 321 303 298 297 292 299 300 306 312 310 310 307 306 304 304 304 301 302 297 296 298 300 294 300 297 294 294 293 293 289 292 292 291 292 292 293 294 292 292 292 291 290 290 289 294 294 295 291 294 294 299 298 296 295 295 293 292 294 295 295 295 295 295
320 318 319 319 320 320 320 319 319 319 320 320 320 320 320 320 320 320 320 320 321 320 321 321 321 313 300 299 295 294 301 305 305 308 307 307 306 306 304 304 302 303 300 296 299 299 298 295 296 296 299 294 292 292 291 292 291 290 291 290 292 290 290 289 288 290 290 294 290 293 293 294 290 290 294 299 295 294 294 297 296 293 294 296 296 294 295 294
320 320 320 321 320 319 320 319 319 319 320 320 320 320 320 320 320 320 320 320 320 321 321 320 319 311 299 296 294 297 301 303 306 304 305 305 302 302 300 302 301 302 301 297 298 299 296 296 297 295 292 294 292 290 290 290 292 290 290 291 290 289 292 291 291 292 290 291 288 291 290 290 289 290 296 298 297 295 293 295 296 295 295 295 296 295 294 295
321 321 320 320 318 318 319 319 319 319 319 319 319 319 320 320 319 319 319 320 320 320 320 321 315 308 298 294 297 302 300 304 304 302 302 302 301 300 299 300 300 299 300 297 296 298 296 297 298 296 295 294 288 292 291 291 290 291 287 288 290 290 289 292 290 286 288 290 287 290 286 285 291 293 296 298 296 292 291 293 294 295 295 295 295 295 295 295
321 321 320 318 317 318 318 319 319 319 319 319 319 319 319 319 319 319 320 319 320 321 321 319 309 300 294 293 295 302 301 302 304 304 302 302 302 302 301 301 300 300 302 299 298 296 297 297 298 296 296 295 293 295 294 287 286 291 288 287 287 286 287 288 289 287 289 288 289 290 287 287 292 295 296 295 294 292 293 294 294 295 295 295 295 295 296 297
321 320 319 318 318 317 318 319 319 318 319 319 319 319 319 319 320 320 320 319 320 320 320 315 302 297 293 297 300 301 313 302 303 303 303 302 300 301 301 300 300 299 299 301 300 298 297 298 298 296 293 294 294 293 289 282 282 283 286 283 280 285 285 289 289 288 290 288 286 290 286 289 292 294 296 292 291 291 292 293 293 293 295 296 297 296 296 297
320 320 318 318 317 317 318 319 318 318 319 319 319 319 319 319 319 319 320 319 319 321 317 304 302 296 294 295 302 317 302 302 302 300 300 302 301 302 299 298 299 299 298 298 298 298 295 298 295 291 294 292 292 286 282 286 283 280 286 283 286 283 284 286 290 286 290 289 289 291 289 285 288 291 293 291 292 290 291 293 294 294 295 295 296 297 297 298
320 320 320 319 318 318 319 318 317 317 318 318 319 319 319 319 318 318 320 320 318 315 306 298 300 300 294 301 302 298 298 300 301 301 302 301 301 299 300 299 298 297 297 297 298 298 294 297 292 292 287 289 285 285 285 282 283 285 283 283 283 284 284 283 287 292 286 288 287 288 286 289 292 293 294 295 294 291 293 294 295 295 296 296 297 297 297 297
321 320 320 320 319 319 318 317 317 318 318 319 318 318 313 318 319 317 315 314 312 308 302 303 300 295 295 298 296 298 298 299 301 299 299 300 300 299 296 295 295 295 296 295 297 295 294 293 290 290 286 287 287 286 283 281 284 283 282 282 283 280 282 286 285 286 289 287 286 284 286 287 290 292 293 294 295 292 292 294 295 295 296 296 296 297 297 297
321 321 320 320 320 319 318 317 318 318 318 319 317 314 316 316 301 301 302 301 296 295 293 295 293 290 289 297 295 294 301 302 300 301 302 301 300 297 297 295 295 297 292 291 292 292 289 290 288 288 288 286 287 288 287 288 287 285 285 284 282 283 284 282 286 289 288 289 288 286 287 289 290 291 292 293 294 293 294 294 294 295 295 296 296 296 297 297
321 321 321 321 320 319 318 318 318 318 319 316 304 299 297 295 289 296 295 298 296 295 297 294 297 292 295 295 296 298 300 300 301 298 301 302 301 299 296 294 293 291 290 291 291 291 291 287 285 285 289 290 289 289 290 290 286 285 284 284 284 284 285 287 288 289 287 286 287 288 290 290 290 291 292 293 294 294 294 294 294 295 296 296 296 297 297 298
321 321 321 321 319 319 319 319 319 318 319 307 297 294 293 291 290 288 291 294 296 295 295 296 298 298 299 295 296 298 298 295 297 299 302 305 301 299 295 294 291 291 289 287 290 289 290 286 285 290 291 290 289 288 287 287 286 286 285 283 285 284 285 289 289 290 286 286 284 285 288 289 290 291 292 294 293 293 294 294 294 295 296 296 297 297 297 298
321 321 321 321 320 320 319 319 319 318 315 298 298 294 293 293 296 295 293 293 296 295 294 297 294 296 297 298 296 297 298 294 295 299 302 302 299 297 293 291 286 290 286 287 288 287 286 284 289 290 290 285 283 283 284 286 286 284 285 284 282 284 286 288 289 289 287 284 286 286 285 288 290 291 293 293 293 295 295 294 295 295 296 296 297 297 297 297
321 321 321 321 320 320 320 320 318 316 301 300 297 294 295 299 297 297 298 290 290 294 295 294 293 293 296 295 297 298 296 294 294 295 300 300 295 295 291 290 288 286 286 287 289 284 285 284 289 291 289 287 287 286 285 285 284 283 283 282 283 286 284 284 284 283 283 285 287 288 285 287 290 292 292 294 293 294 295 295 295 295 295 296 296 295 296 296
321 321 321 321 321 320 320 320 318 307 300 298 297 299 297 296 296 299 295 291 291 294 294 294 294 292 292 295 297 299 295 292 293 293 299 298 294 292 292 289 287 285 288 288 289 288 289 286 286 287 287 288 287 286 285 284 286 285 285 284 284 285 286 285 285 284 284 286 283 284 286 288 288 287 287 289 289 291 293 293 294 295 296 296 296 296 298 296
321 320 320 321 320 319 319 319 304 302 299 300 298 299 294 295 297 298 295 291 288 289 295 293 293 293 295 298 296 296 292 292 292 293 296 298 291 292 290 288 287 287 288 286 286 285 286 288 285 285 284 285 285 284 285 286 284 284 283 286 287 288 286 285 285 284 281 282 282 283 284 285 285 285 285 287 286 288 288 291 294 296 296 295 293 294 296 297
320 320 320 320 320 319 320 310 304 300 302 301 302 298 295 295 295 296 292 285 285 288 293 291 297 295 298 294 293 292 294 291 294 294 299 296 297 293 290 290 289 287 285 286 286 285 287 286 287 289 285 283 284 284 285 286 285 283 285 286 288 287 285 284 283 284 278 278 283 282 281 281 283 287 288 289 288 290 293 292 293 293 293 293 294 294 294 294
320 320 320 320 320 319 313 306 305 302 303 303 299 297 295 297 297 298 291 285 284 290 289 293 294 292 297 293 293 293 287 286 295 294 295 298 296 298 290 286 287 286 285 285 284 284 285 284 285 284 284 284 283 282 286 287 285 282 282 282 285 284 283 284 283 284 282 281 283 283 283 279 283 285 288 288 289 292 292 292 292 292 292 293 294 294 293 293
319 320 319 320 320 317 313 310 309 305 305 304 300 297 297 296 297 297 293 281 280 292 289 290 293 297 297 292 290 290 289 287 288 292 294 295 295 293 291 284 289 286 284 286 283 285 285 284 284 284 283 281 284 287 284 288 286 283 283 283 284 284 283 282 283 281 279 279 280 280 283 280 280 285 284 286 286 288 289 291 291 291 291 292 293 293 292 292
314 316 318 319 319 317 315 312 309 307 305 300 299 299 299 297 294 291 285 278 291 286 299 291 300 295 291 293 290 285 289 288 287 289 291 294 296 291 288 287 284 283 284 287 287 285 284 286 285 286 284 284 285 283 285 288 285 284 282 282 281 281 281 282 279 281 278 276 279 280 282 280 283 288 284 282 285 285 286 288 289 290 291 291 292 292 292 291
312 313 315 319 317 315 312 312 309 308 303 302 300 299 300 299 296 288 284 279 293 287 291 293 292 288 288 288 287 287 289 287 287 287 290 291 293 293 290 288 286 286 287 285 284 286 286 288 286 285 286 288 284 283 283 288 285 283 284 285 281 280 278 277 277 277 276 275 280 281 282 283 280 285 284 285 286 286 286 285 287 290 290 290 290 289 292 291
311 311 313 317 314 314 313 309 311 306 304 303 302 303 302 296 287 283 280 287 291 291 291 290 287 290 288 287 286 287 288 285 289 288 289 291 291 288 288 289 287 282 280 280 284 286 286 285 287 286 288 284 284 284 283 283 282 284 281 281 282 283 277 274 269 275 275 273 279 281 283 283 278 281 283 281 283 281 286 288 291 290 291 292 290 291 291 291
309 311 312 315 315 316 311 310 310 306 305 304 308 305 301 290 288 284 284 296 287 290 288 287 286 285 285 286 286 285 286 288 286 288 286 285 285 286 285 284 283 281 280 278 283 281 282 284 285 286 289 289 286 286 282 283 285 284 282 283 279 274 273 270 270 271 271 277 278 279 281 279 280 287 284 288 290 289 284 288 291 291 291 292 290 290 290 290
308 309 311 313 315 314 314 311 309 307 307 308 306 304 295 286 281 287 286 288 288 292 291 290 288 288 286 287 286 285 286 287 288 289 288 286 285 286 283 286 284 287 284 280 280 282 285 281 283 285 287 288 288 284 280 282 282 283 283 280 277 273 270 267 266 265 269 275 277 279 281 280 285 286 288 292 294 294 291 288 288 288 289 288 290 289 288 289
308 309 308 311 315 315 312 311 310 311 309 307 304 298 292 285 283 293 287 289 290 290 291 289 288 287 287 289 286 285 289 288 288 289 290 286 285 282 284 286 285 287 287 280 283 281 279 285 285 285 286 286 289 290 289 285 282 284 283 285 282 278 273 273 272 278 281 279 277 277 276 275 276 283 284 288 288 285 284 285 286 286 286 287 285 287 288 289
307 309 309 311 312 316 311 311 311 312 309 304 299 293 286 285 287 284 285 286 287 290 294 292 291 289 289 287 284 285 290 290 288 286 287 287 285 281 284 285 285 286 284 285 285 278 284 286 286 287 286 287 287 288 283 282 283 282 281 281 277 281 283 282 284 281 284 281 275 273 278 278 284 286 287 286 285 286 285 285 283 285 285 285 288 289 289 289
306 305 311 310 310 314 312 311 311 312 309 302 294 288 287 287 281 285 288 292 291 292 291 292 289 288 283 284 283 286 289 290 289 288 286 286 285 286 284 283 285 289 287 286 286 282 284 281 283 285 284 286 286 285 287 286 281 282 283 280 283 285 286 281 280 281 278 277 279 281 279 283 286 291 294 286 285 287 284 284 284 286 285 287 289 289 288 288
300 303 301 307 309 313 313 311 311 310 307 301 293 288 293 291 292 286 294 293 294 292 292 289 288 289 285 283 284 281 287 289 286 287 285 285 286 287 284 285 286 288 292 293 286 289 286 288 286 284 285 285 283 285 285 282 285 283 279 284 285 285 285 281 276 273 275 277 278 284 281 283 282 280 285 287 286 287 286 284 283 286 288 288 289 288 287 286
299 301 303 304 308 313 313 311 312 309 303 296 290 294 293 291 293 295 290 292 293 294 290 288 289 291 285 285 285 283 286 286 284 286 282 286 287 287 283 287 287 289 291 290 288 286 288 282 288 285 286 286 284 287 286 285 285 285 284 286 285 278 277 279 273 274 275 274 276 279 284 284 286 286 290 290 290 288 287 284 287 288 287 287 286 285 285 285
299 301 296 302 307 314 312 312 311 306 299 292 290 290 296 297 291 291 292 294 294 292 290 288 289 290 288 284 285 284 284 283 284 282 283 284 284 288 288 288 289 286 286 289 286 283 287 283 284 285 286 286 284 283 279 283 285 285 286 284 283 282 279 275 279 275 278 276 279 278 282 280 288 287 287 287 290 288 285 286 286 285 284 284 284 284 284 284
297 296 293 304 311 313 312 312 306 302 297 290 292 293 293 291 295 293 292 297 294 293 290 291 289 290 291 290 288 288 285 285 284 285 286 287 288 291 290 290 288 288 286 288 288 288 283 286 278 286 284 285 281 283 282 283 281 282 282 280 282 281 283 282 282 280 280 278 278 278 277 283 288 291 290 291 289 285 286 285 284 283 283 284 284 283 283 284
299 294 294 310 312 313 312 307 300 295 294 296 297 295 294 293 292 293 293 294 295 296 294 289 288 289 288 287 289 289 287 286 286 287 287 286 288 285 291 291 290 290 289 288 287 285 284 283 282 284 284 283 285 285 286 285 286 283 284 282 285 282 281 279 277 286 281 280 276 278 276 283 291 294 293 293 287 286 286 284 283 282 283 283 283 283 283 283
295 285 293 310 313 312 306 296 296 297 293 293 293 295 294 301 294 294 293 293 294 293 294 293 290 290 289 290 291 287 288 285 286 286 286 288 289 289 290 289 290 289 289 285 286 286 286 283 283 281 284 286 288 288 286 286 286 285 287 286 289 285 285 281 276 281 283 282 284 281 279 281 294 294 295 290 285 284 284 284 283 283 283 283 283 283 283 283
294 288 302 307 312 310 302 294 297 294 293 294 298 296 295 292 290 291 291 292 291 293 291 291 291 291 291 292 290 288 290 286 288 287 285 284 289 291 287 289 290 289 290 284 288 288 291 279 278 284 286 285 289 291 289 287 289 287 287 286 285 285 287 285 284 284 282 282 281 281 278 282 291 291 290 286 285 284 284 283 283 282 282 282 282 282 283 282
292 292 296 305 309 309 299 288 289 291 293 296 296 295 296 293 292 291 291 291 292 290 290 289 289 293 291 291 289 288 287 284 287 289 286 287 285 287 286 288 290 290 290 285 288 288 283 283 284 279 281 282 283 285 285 283 284 282 283 284 285 286 285 284 283 282 279 281 282 279 274 281 289 290 290 288 285 283 283 283 282 281 282 281 281 282 282 282
287 287 291 295 303 303 293 294 292 291 292 293 294 292 294 295 295 296 294 291 294 292 291 289 293 290 289 288 287 288 288 288 285 289 287 285 285 285 284 286 288 287 288 289 292 289 285 283 283 277 275 273 273 274 273 273 277 280 280 281 283 284 284 282 279 281 278 282 283 279 279 286 289 290 292 289 285 283 283 282 282 281 280 281 281 281 281 281
282 275 281 285 292 297 295 297 295 291 286 289 289 292 294 292 293 290 293 293 296 291 292 291 288 290 288 288 286 288 288 288 286 283 283 282 282 284 283 284 285 285 290 292 287 287 284 284 285 284 281 279 281 283 284 285 283 282 281 283 284 284 283 284 284 281 278 282 281 282 283 284 285 288 289 285 282 282 281 281 280 280 280 280 281 280 281 280
281 279 278 273 284 287 290 294 292 294 289 293 287 290 288 290 290 290 293 288 289 291 290 291 288 287 285 286 285 286 287 286 286 287 287 286 284 284 283 282 283 286 291 288 287 281 282 282 284 285 284 284 286 285 287 286 283 284 283 283 285 284 285 283 281 278 285 281 276 284 285 283 284 288 287 281 282 281 280 280 280 280 280 279 280 280 281 280
277 277 282 286 284 276 281 287 291 289 291 291 288 292 288 286 287 285 287 289 288 288 287 286 289 289 288 287 285 283 285 286 285 283 285 284 285 285 286 286 284 285 285 281 283 283 281 280 284 284 281 284 284 284 283 282 282 283 283 284 283 284 283 281 282 284 284 279 277 283 284 282 283 285 281 280 281 282 280 279 280 280 280 280 279 278 279 279
281 281 281 284 280 281 282 284 284 287 286 289 287 290 288 288 286 287 285 284 286 285 289 285 288 287 287 287 285 283 285 281 281 284 284 282 280 280 279 282 284 282 281 279 280 283 281 278 282 281 280 282 282 281 281 281 281 281 281 281 282 282 282 282 282 282 282 281 282 282 283 282 285 281 280 279 281 282 281 281 280 279 279 279 278 278 278 279
279 281 278 283 282 282 282 281 280 281 283 288 286 287 288 287 287 288 287 286 284 285 287 287 287 287 282 282 285 285 286 284 282 282 280 277 275 275 273 279 277 277 279 277 280 280 284 276 285 279 277 277 280 281 280 279 279 277 279 280 281 281 281 281 281 281 281 280 282 281 281 281 282 281 280 281 281 281 281 280 279 279 279 279 278 277 278 278
284 285 285 280 278 279 279 280 280 280 279 281 283 286 288 287 287 286 285 287 286 284 283 280 281 281 281 283 284 284 284 281 282 280 280 279 277 280 278 278 282 276 279 277 280 280 282 277 282 278 274 274 279 278 278 278 277 276 276 278 278 278 277 279 278 281 279 278 279 279 277 278 277 279 278 280 278 278 277 278 280 280 279 279 277 277 278 278
282 280 284 282 276 281 278 279 276 278 275 278 281 282 284 282 281 285 284 285 284 285 283 283 282 282 282 283 281 282 283 284 283 284 285 284 286 283 283 283 283 281 279 278 282 279 280 277 275 275 272 272 277 277 275 273 272 270 271 275 277 277 278 279 281 281 281 280 277 275 276 277 277 280 276 278 278 278 278 279 277 279 280 279 277 277 279 279
Wind_Speed
12 13 13 13 13 13 13 13 13 13 13 12 12 12 11 10 10 10 10 10 10 10 10 11 11 11 11 10 8 7 7 0 1 0 0 8 4 5 1 6 10 12 9 6 5 5 1 2 2 5 2 3 2 1 2 1 1 1 2 3 1 5 3 7 7 10 2 0 3 2 3 2 6 3 2 1 2 3 5 3 6 6 10 8 4 2 1 3
12 12 12 13 13 13 13 13 13 13 13 13 12 12 12 12 11 11 11 10 10 10 10 11 11 11 11 9 8 5 3 0 1 1 11 2 3 5 4 8 10 10 9 4 6 3 5 0 0 3 2 1 2 0 1 1 0 3 2 2 6 5 7 9 7 8 1 8 4 3 1 1 8 1 2 3 4 4 10 5 3 9 12 10 10 7 3 6
12 12 12 12 13 13 13 12 13 14 14 14 13 13 13 13 12 12 12 11 10 10 10 11 11 11 10 9 7 3 0 1 0 2 2 0 3 6 7 10 12 8 4 4 4 7 2 5 4 3 2 1 6 1 2 0 1 2 4 4 7 9 6 7 5 7 11 3 5 6 3 1 5 1 1 3 8 4 10 12 3 8 15 11 10 5 7 7
12 12 13 12 12 13 13 13 13 14 14 14 14 14 14 14 14 13 12 12 12 11 11 11 11 10 10 10 7 1 1 1 1 2 1 3 4 7 8 10 9 8 9 8 6 6 5 9 6 3 1 1 3 0 1 2 1 1 2 5 6 5 1 6 11 11 9 2 3 3 3 5 5 7 2 2 5 10 14 11 13 15 13 13 9 6 6 8
12 12 12 12 12 13 13 12 13 14 14 13 14 14 14 14 14 14 14 13 13 13 12 11 11 11 10 9 5 2 2 4 3 1 2 4 4 8 9 11 9 3 5 9 10 6 6 5 3 3 2 2 1 1 3 1 1 3 10 5 5 3 3 6 8 5 4 2 3 3 6 9 1 1 4 4 7 12 10 7 11 15 12 8 8 7 6 8
11 12 12 12 13 13 13 13 13 14 14 14 14 14 14 14 14 15 15 14 14 14 13 13 12 12 11 7 1 1 4 3 1 1 4 5 6 8 9 10 9 10 11 5 4 4 7 2 4 1 0 1 3 5 2 2 2 5 2 6 6 7 5 1 2 3 3 1 2 4 4 6 1 8 5 9 13 17 18 8 9 10 8 8 3 3 6 9
8 12 12 12 12 13 13 13 13 14 14 14 14 14 14 14 15 15 15 15 14 14 14 13 12 12 12 2 0 2 3 6 1 6 7 7 8 9 10 9 9 7 6 6 4 3 1 3 2 2 3 1 3 4 4 2 0 1 8 0 6 4 10 4 3 4 3 3 7 3 6 10 4 12 0 8 13 20 22 11 9 8 5 4 6 8 11 11
10 9 11 12 12 13 13 14 14 14 14 14 15 15 15 15 15 15 15 15 15 14 13 13 12 11 10 1 1 2 1 5 9 1 8 10 9 10 10 4 6 5 6 8 8 4 5 6 6 3 1 5 3 6 1 1 1 4 8 3 5 1 6 5 5 4 5 9 8 3 7 18 8 6 9 24 14 19 18 16 11 10 8 7 10 13 12 11
6 9 10 11 12 12 13 14 14 15 15 15 15 15 15 15 15 15 15 15 14 13 13 12 12 11 4 1 3 2 5 6 4 6 7 9 8 9 9 4 2 7 4 3 2 7 6 5 2 7 7 2 2 2 2 2 8 8 13 0 4 5 6 5 6 6 8 7 4 1 13 18 9 4 11 28 23 10 14 15 10 7 9 10 12 14 12 12
6 9 10 10 11 12 13 14 15 15 15 15 15 15 15 15 15 15 16 14 13 12 12 10 10 9 3 2 1 4 6 4 2 5 7 9 8 8 6 3 7 7 6 2 5 6 6 7 9 5 3 1 5 3 2 6 6 4 2 3 6 8 6 4 7 5 5 6 6 9 12 14 2 2 12 14 6 3 3 8 4 3 9 11 9 10 10 11
7 9 10 10 10 12 13 14 15 15 15 16 16 16 16 16 16 16 15 14 13 12 10 9 8 5 0 1 2 11 2 5 1 4 7 8 9 8 5 6 5 5 6 1 6 9 4 7 4 5 1 5 3 3 3 4 2 2 0 5 8 7 7 8 5 12 1 8 8 10 12 10 3 3 16 23 2 4 4 12 11 5 10 13 12 10 9 10
8 8 10 12 13 13 14 15 15 16 16 16 16 17 17 17 17 16 16 14 13 11 9 7 3 1 0 2 8 9 3 3 5 4 5 6 5 2 4 6 5 7 9 6 7 4 4 6 7 4 2 3 1 1 3 4 1 0 1 5 8 6 12 3 6 6 8 7 5 8 0 8 2 10 21 17 6 4 4 10 14 13 12 12 11 9 9 12
8 8 11 12 12 13 14 14 16 17 17 18 18 18 18 18 18 18 17 14 11 8 6 4 4 0 1 6 9 3 2 4 7 7 5 6 6 4 3 1 2 3 5 5 4 5 5 8 4 3 2 2 2 2 1 3 0 0 2 1 10 7 10 8 3 4 5 4 8 5 8 6 12 16 18 13 0 1 4 10 11 12 12 9 8 10 10 10
7 7 10 11 11 12 13 14 16 17 17 18 19 19 19 20 20 18 15 14 11 8 4 2 2 1 1 7 5 1 2 4 6 6 3 1 5 2 4 4 4 3 1 2 1 1 6 2 5 2 1 4 3 1 1 4 3 3 3 2 5 4 9 4 1 1 1 3 9 1 9 8 14 17 14 6 0 2 8 11 10 12 12 11 9 9 11 13
5 5 9 11 12 12 13 15 17 18 19 19 20 20 20 19 17 13 11 7 7 7 7 4 1 2 1 8 2 1 7 1 3 1 2 4 4 2 1 3 4 4 3 4 3 2 5 6 5 1 3 0 1 3 5 3 4 1 4 5 2 6 6 11 2 5 8 1 2 4 9 13 13 16 13 2 2 0 7 11 10 12 14 15 14 13 12 15
5 4 10 10 12 13 12 12 17 19 19 20 20 21 18 13 9 8 4 2 3 7 5 1 1 2 1 7 1 6 2 1 1 1 1 2 5 2 3 4 1 3 2 4 2 4 3 4 2 3 0 1 2 2 3 6 4 3 6 6 8 2 5 8 6 3 9 1 2 10 11 3 9 13 13 1 0 2 10 16 14 16 18 17 15 15 14 14
5 5 6 8 12 12 11 14 16 19 19 19 22 18 11 5 5 8 6 6 4 3 1 1 1 1 1 3 3 2 2 0 2 1 2 2 2 7 7 4 1 3 5 4 2 4 3 2 2 1 3 2 2 5 2 2 8 7 1 7 4 6 3 5 9 7 1 5 4 6 7 11 14 10 15 17 11 7 14 21 17 16 15 17 16 16 16 15
5 5 6 6 12 11 13 15 17 19 21 20 19 13 7 5 1 3 8 6 2 2 0 0 2 1 9 1 5 2 0 2 2 3 2 2 4 6 5 3 1 5 4 3 3 2 2 1 4 6 2 1 2 2 3 10 9 6 3 5 7 2 5 10 2 5 10 4 6 1 11 14 16 15 15 17 17 9 14 19 17 17 17 17 15 16 18 16
7 6 5 6 10 11 13 15 17 19 20 24 12 8 2 3 2 2 3 0 1 1 1 1 2 4 4 1 4 3 1 1 2 1 1 4 1 3 4 3 5 7 1 2 1 2 2 4 4 2 6 5 8 11 12 16 8 7 4 5 4 9 5 5 9 8 4 16 14 10 17 17 12 14 14 14 14 14 17 15 16 17 17 17 15 14 16 16
7 7 5 5 5 9 11 14 16 18 19 15 7 4 1 3 3 0 4 1 2 4 1 4 6 2 7 6 2 0 1 1 1 4 0 2 5 4 4 2 2 5 5 4 1 2 1 5 7 8 12 12 7 13 17 7 3 1 1 2 9 9 11 7 11 10 4 8 12 16 18 17 12 12 14 15 15 17 19 17 16 16 18 18 15 16 17 17
7 7 5 3 4 8 10 14 15 16 18 6 3 2 3 0 2 3 5 9 6 4 5 7 12 8 9 2 1 1 0 1 3 0 1 1 0 7 1 2 1 1 1 2 6 1 3 6 8 13 13 7 6 3 3 5 5 6 8 6 11 3 15 8 10 5 1 2 3 4 16 18 16 13 14 16 15 21 23 17 10 16 20 17 17 18 15 13
7 7 5 5 4 6 9 11 14 15 10 1 5 4 1 0 0 1 1 6 5 7 7 9 4 5 5 2 1 2 4 2 1 1 0 1 1 3 2 4 3 8 0 3 1 2 3 8 12 15 4 5 4 3 2 4 5 4 7 5 6 9 11 9 12 7 3 2 12 7 15 14 16 18 20 19 21 17 13 9 15 15 20 17 18 10 9 12
7 7 7 5 5 5 7 10 11 10 4 4 3 2 1 0 0 0 1 1 7 3 3 5 4 7 8 2 1 4 3 7 8 2 5 3 2 3 5 4 3 1 2 3 9 3 4 4 16 13 1 4 2 1 1 2 1 4 6 3 10 4 4 8 3 1 2 0 11 14 20 16 16 19 19 17 10 14 14 15 16 14 18 23 12 7 11 14
7 7 7 7 5 4 6 9 9 3 3 1 2 1 0 2 2 1 1 3 4 7 4 4 3 2 5 2 2 7 6 3 2 4 2 4 7 3 4 5 3 3 8 9 11 11 11 2 2 3 6 6 7 5 3 6 11 4 7 5 10 11 12 9 6 6 7 6 1 9 13 10 7 4 4 4 5 4 14 14 15 19 6 7 10 13 7 9
7 6 7 6 4 3 4 6 3 0 2 1 0 1 1 2 1 2 1 4 1 5 1 1 2 2 3 1 2 4 1 0 3 0 1 2 5 2 2 1 3 7 6 5 3 5 10 8 3 5 2 3 4 5 8 9 9 4 6 13 16 15 11 8 7 8 5 6 3 5 13 3 1 2 2 5 5 4 7 11 20 3 2 1 6 10 2 2
6 6 5 5 5 4 2 2 0 2 0 0 0 1 2 2 2 1 2 2 6 3 2 3 1 0 1 1 2 2 4 2 0 1 1 2 2 1 2 0 2 3 3 4 6 4 7 2 4 5 3 3 4 5 7 8 10 1 9 10 14 11 7 7 9 4 4 1 2 4 3 15 3 3 4 8 3 9 15 12 13 7 9 7 8 7 4 4
5 4 4 4 6 3 0 1 1 2 2 0 1 2 2 2 2 1 1 2 4 3 3 1 1 1 1 0 0 1 2 2 1 2 1 2 1 0 3 4 1 1 2 3 3 5 2 1 5 4 5 4 3 6 5 11 4 6 3 3 5 5 6 6 3 5 7 2 5 2 5 4 20 5 9 3 4 14 13 11 10 10 8 9 8 6 8 6
5 2 3 4 8 5 1 1 1 0 1 1 3 2 2 2 1 0 1 4 3 1 1 1 0 1 1 1 5 0 0 1 1 0 0 2 1 1 1 5 8 7 3 3 7 3 6 3 4 4 2 3 8 6 3 10 7 5 0 5 2 5 5 2 3 5 3 6 8 0 1 3 10 2 3 4 5 11 11 11 10 9 9 8 8 6 8 6
10 10 3 5 7 6 2 1 2 1 1 4 3 3 2 2 1 2 2 1 1 2 1 1 3 1 2 1 2 1 0 1 0 1 3 1 2 1 1 4 3 2 1 6 9 2 2 2 9 9 7 8 6 4 9 11 5 3 4 6 6 6 6 2 2 1 4 3 9 6 5 4 19 4 5 4 2 7 8 4 7 8 8 10 9 6 5 2
11 10 9 8 8 3 1 2 3 2 6 5 4 3 2 0 0 1 0 5 3 2 1 1 1 1 1 1 1 2 1 1 1 1 3 2 2 2 0 2 2 1 3 2 4 6 1 3 5 4 8 6 5 1 4 7 2 4 3 2 4 6 4 4 5 2 3 4 8 12 10 5 11 3 7 6 5 4 3 3 5 8 8 7 3 5 4 4
10 9 9 8 3 3 4 1 2 6 7 5 5 2 0 2 2 2 8 2 3 2 1 1 1 3 1 1 1 1 0 0 0 1 0 1 1 2 2 1 3 2 2 2 7 3 1 1 1 4 2 4 4 3 3 1 2 2 1 2 4 2 6 3 4 3 1 8 2 9 11 8 9 3 4 5 5 6 2 5 13 11 10 10 6 7 6 8
10 8 7 2 2 2 3 2 2 6 7 7 2 1 1 3 1 9 3 1 1 2 1 1 1 1 1 1 2 1 3 0 1 1 4 2 3 4 4 6 3 1 3 1 5 3 2 8 3 5 2 9 2 1 2 3 1 3 3 1 0 5 6 2 3 1 5 9 1 2 2 3 17 11 4 10 12 9 8 6 10 10 9 8 11 9 7 7
9 8 6 3 1 1 1 2 5 4 6 3 1 2 1 2 8 2 0 0 3 1 2 3 1 1 1 2 2 1 1 2 1 2 4 0 2 5 5 5 3 3 6 1 2 4 7 1 1 5 1 4 8 7 1 1 5 7 6 5 5 2 1 3 5 2 6 5 3 1 1 8 10 8 8 15 20 12 3 5 3 4 7 7 7 9 9 9
9 5 1 2 4 3 3 5 6 6 4 2 3 2 3 8 7 1 3 5 5 1 1 1 1 1 1 4 2 3 1 3 4 2 3 1 1 2 4 5 4 2 1 0 3 3 6 9 6 5 4 5 10 12 12 6 10 12 3 11 9 7 4 5 5 8 7 4 2 3 2 7 1 5 2 9 4 5 4 3 4 4 2 2 5 3 9 11
9 3 2 1 1 3 5 4 7 6 4 4 2 2 6 11 0 3 2 3 3 2 2 1 1 1 4 0 2 3 4 3 2 2 2 4 5 4 4 4 3 4 1 2 2 3 9 10 7 4 0 8 10 4 6 6 4 2 3 3 3 8 5 7 6 6 10 5 2 2 7 4 8 1 8 5 7 5 5 4 6 6 5 4 7 11 11 11
3 0 1 1 3 3 7 6 6 4 5 3 2 5 13 6 2 2 3 2 0 1 1 2 1 1 5 3 2 0 4 4 2 2 2 4 2 4 2 2 5 13 7 7 3 3 0 6 1 2 3 7 5 2 2 4 6 3 6 6 9 2 5 2 3 1 2 2 12 3 6 9 7 13 15 2 3 2 4 5 7 9 8 9 11 10 11 12
2 1 1 3 3 3 7 8 7 5 4 5 6 11 8 3 6 2 2 3 1 2 1 3 3 4 1 3 1 1 1 1 3 2 5 1 5 7 3 5 5 5 10 8 6 5 9 11 1 5 4 4 0 0 1 3 3 7 2 7 1 2 2 3 6 2 2 10 8 6 13 11 3 13 3 2 2 1 5 5 6 8 9 13 13 14 13 13
0 0 2 2 5 6 9 8 9 6 4 3 9 15 3 4 1 6 2 2 1 1 1 3 6 4 4 3 5 2 1 3 2 2 3 3 5 4 2 2 4 7 8 1 3 4 2 6 6 2 4 1 1 0 4 0 1 4 4 1 2 3 2 1 4 5 6 8 6 7 13 15 11 15 12 15 14 4 4 8 14 14 15 14 13 13 11 10
0 1 2 3 1 10 9 10 8 8 5 6 10 12 4 10 2 2 6 5 1 1 3 3 5 2 2 2 2 1 2 3 1 2 1 4 4 3 3 3 1 1 3 4 1 2 1 6 3 1 2 1 1 3 6 4 1 1 0 1 0 1 3 3 7 3 1 12 8 10 9 10 7 9 7 7 8 7 9 12 7 10 12 11 11 11 11 11
3 3 3 0 2 8 10 10 7 8 6 14 11 10 2 1 3 1 2 4 3 3 3 4 3 8 4 6 1 7 2 3 3 5 4 3 3 3 1 1 1 1 3 0 3 1 3 2 7 1 3 1 2 4 8 8 6 1 1 4 1 1 3 2 2 4 7 9 10 9 11 6 6 3 3 8 9 12 11 9 10 10 11 11 11 10 11 12
1 2 1 2 5 9 10 7 7 12 11 5 7 7 2 5 1 1 1 3 3 2 3 2 3 5 2 1 5 1 1 4 4 5 3 4 3 7 1 1 1 1 1 3 1 1 1 0 7 2 3 6 8 4 7 6 7 7 9 8 10 7 5 8 11 4 3 7 7 9 14 5 4 5 9 8 11 12 10 11 9 10 11 11 10 12 11 11
2 2 1 2 7 11 10 11 5 2 2 9 9 3 4 2 3 4 2 1 4 3 2 1 1 3 1 6 4 1 1 2 4 4 2 9 1 5 1 7 2 2 1 4 4 3 3 2 2 8 9 12 6 4 2 4 3 2 4 3 4 3 3 5 10 4 3 5 4 8 9 6 4 6 7 11 11 10 8 10 9 8 9 9 9 9 8 8
1 3 1 2 3 9 6 7 5 5 6 3 3 4 1 2 3 1 1 0 0 2 1 1 4 3 3 5 4 5 5 6 5 5 3 3 5 4 5 6 2 1 1 2 2 1 6 0 1 8 4 4 8 7 1 1 4 2 2 3 1 8 11 12 12 5 8 6 8 9 11 3 5 4 7 14 11 10 10 10 9 8 7 8 10 11 12 12
2 1 3 2 1 7 8 9 10 9 6 4 4 5 1 2 1 2 2 1 3 1 3 2 1 4 4 2 1 5 3 5 4 9 5 3 4 2 6 6 2 2 1 4 1 4 1 4 2 4 3 4 3 4 4 2 3 1 2 4 4 4 4 5 3 0 5 4 9 10 13 2 1 4 4 9 11 10 10 9 8 8 6 7 7 7 7 8
1 2 2 5 3 1 9 2 4 5 6 8 6 10 9 4 5 8 5 4 1 3 1 2 4 1 2 1 0 0 1 5 4 2 2 1 2 2 7 7 8 3 4 2 4 1 1 2 4 10 8 8 8 10 7 4 2 1 2 2 3 3 6 3 6 1 10 4 11 8 9 5 2 4 7 8 7 8 7 7 6 6 5 4 5 5 5 5
1 2 2 3 3 1 3 0 2 5 3 6 5 7 8 9 3 1 6 4 6 3 5 3 0 1 1 2 2 3 6 4 7 3 1 2 2 1 2 2 2 1 1 8 5 1 1 2 3 8 12 14 12 8 1 2 2 5 4 3 8 5 3 4 5 9 11 10 11 9 11 12 13 14 10 4 4 5 4 4 5 4 4 2 1 2 2 2
1 3 2 2 2 3 3 3 2 2 3 3 6 2 9 10 7 4 7 1 2 3 1 4 2 2 3 4 4 6 6 9 6 6 9 11 2 1 3 3 2 7 2 2 3 3 0 5 7 11 12 12 11 11 11 9 13 11 12 13 11 11 10 10 10 14 7 13 16 7 14 13 10 8 4 3 3 3 4 3 2 2 2 3 3 3 5 5
2 2 3 2 2 4 3 8 1 3 6 2 3 2 4 2 1 3 2 0 0 0 2 3 3 7 7 7 4 4 2 6 4 4 1 1 1 3 1 3 3 4 4 1 1 2 1 5 5 7 10 9 11 11 5 5 4 6 8 9 11 11 12 15 18 16 12 14 20 15 15 17 15 10 3 3 3 2 3 2 1 0 1 1 2 5 6 6
2 1 0 2 2 2 1 1 3 1 3 3 1 2 7 8 11 6 1 3 1 2 3 7 4 5 7 6 4 3 2 4 3 2 4 2 4 1 1 2 1 4 4 2 2 0 0 4 7 6 8 6 9 9 7 9 9 10 10 11 12 14 17 17 16 14 15 17 16 16 17 20 15 2 5 4 2 2 3 2 1 1 2 2 2 4 4 5
2 0 1 3 3 2 1 2 1 2 3 4 5 7 8 6 11 6 1 3 6 6 2 9 10 8 3 1 3 8 4 4 5 12 2 5 3 2 2 4 1 2 2 1 1 5 2 6 4 2 5 8 8 9 9 9 10 12 10 10 13 16 19 17 19 19 19 17 16 19 19 18 4 4 6 5 1 1 2 2 3 2 2 2 3 5 4 5
1 1 1 2 2 2 3 1 1 1 1 2 7 4 5 6 8 3 2 4 2 2 3 2 6 5 2 0 3 5 3 5 4 2 2 3 2 2 2 3 6 1 3 0 0 2 3 4 5 4 7 9 8 11 11 11 13 10 11 16 21 21 17 15 16 14 12 14 15 10 10 7 4 3 2 4 1 0 1 3 3 4 2 2 4 5 6 6
2 1 2 1 0 1 3 1 0 2 4 3 2 2 1 3 2 2 1 4 5 8 4 5 5 4 3 2 3 4 4 3 3 2 3 4 4 6 2 4 5 2 2 1 2 3 1 2 3 6 10 11 11 7 3 3 9 14 15 20 20 19 18 18 15 13 13 4 10 12 10 2 4 3 3 2 2 3 2 5 4 4 3 2 3 4 5 6
Wind_Direction
21 18 16 17 16 13 11 11 10 8 6 6 3 0 359 359 354 351 349 348 345 346 341 337 340 339 340 340 338 339 342 83 54 6 249 241 224 224 179 113 129 141 139 96 95 108 40 27 103 343 35 56 316 76 284 48 75 56 113 122 250 210 160 204 188 192 214 227 276 312 183 6 303 322 276 26 297 241 270 245 282 287 249 234 245 121 118 136
17 14 11 9 9 8 6 3 2 1 359 359 359 355 354 352 351 347 348 346 343 341 341 337 336 337 340 340 342 340 16 113 214 188 227 245 286 169 143 139 134 144 120 91 128 120 121 281 2 44 77 93 325 281 5 221 94 106 123 110 235 190 238 164 201 207 153 254 224 263 253 197 262 271 292 334 282 303 296 257 252 261 270 269 265 225 146 151
11 7 7 4 1 0 360 359 356 355 353 352 353 351 350 348 348 346 344 343 341 338 338 334 334 333 336 338 333 20 42 356 93 256 255 63 210 153 151 150 151 154 135 155 189 137 136 195 177 99 11 117 3 202 28 267 111 223 129 232 241 215 229 222 197 223 204 262 287 304 298 168 253 140 326 227 282 317 268 279 278 243 261 254 256 215 197 176
4 0 359 358 357 355 354 353 353 351 348 348 345 346 344 344 343 343 341 340 339 338 335 334 331 332 331 333 337 132 87 15 299 235 266 258 184 155 156 151 136 117 88 63 135 107 104 91 75 96 81 85 305 23 157 242 125 255 114 198 230 209 198 243 213 234 237 180 266 267 294 307 266 227 158 207 326 264 255 245 238 252 245 258 248 245 190 203
357 355 352 352 353 351 350 350 349 347 345 343 343 341 340 339 338 337 338 338 338 336 336 332 334 333 329 335 355 153 17 49 271 233 246 218 174 154 152 143 129 95 104 140 87 65 80 113 104 43 90 224 338 12 243 265 181 116 211 218 199 114 246 243 225 221 206 180 212 293 321 273 46 273 221 188 220 267 263 233 216 235 240 243 258 240 183 205
354 351 349 349 349 350 349 346 347 345 343 341 340 338 336 335 335 334 335 336 334 335 334 335 335 334 330 330 82 81 71 335 214 261 152 139 149 145 136 128 123 113 112 72 104 115 102 39 96 143 3 84 204 180 261 177 141 244 275 253 228 207 246 248 236 227 156 211 180 288 250 334 10 292 209 189 206 255 259 248 239 238 235 236 257 143 202 214
351 346 347 346 346 345 345 345 343 343 341 339 338 337 334 334 331 332 330 332 330 330 335 333 334 335 330 10 58 89 144 251 302 241 145 137 132 123 122 115 118 111 100 96 118 121 111 112 118 182 98 15 276 200 249 198 357 222 262 221 288 193 232 218 272 137 204 185 252 212 330 293 297 302 144 191 221 241 265 262 259 261 241 236 247 219 226 219
341 343 343 344 343 342 343 345 342 339 340 337 334 333 331 329 330 327 327 326 327 327 330 332 334 329 348 54 281 2 50 246 246 273 149 119 109 115 110 82 107 112 125 157 147 136 132 142 176 133 181 183 223 159 184 116 134 211 270 212 268 188 243 265 253 271 268 253 256 313 285 270 251 247 325 276 228 245 261 272 262 270 266 250 242 252 242 241
349 340 340 342 340 339 341 340 338 337 335 333 331 328 328 327 326 325 324 323 324 323 326 331 329 332 320 77 115 313 255 238 243 192 125 118 124 122 132 131 137 135 138 106 141 156 130 238 146 183 241 199 184 182 206 169 286 204 235 281 285 274 274 269 288 242 242 266 172 199 256 262 278 222 250 261 271 249 258 273 272 273 272 252 242 245 242 240
353 337 339 339 335 337 339 337 336 335 333 331 329 328 324 325 320 321 318 319 317 322 319 328 334 325 28 84 47 282 259 180 38 115 117 125 125 121 50 136 131 121 119 188 96 127 187 206 179 202 120 156 140 208 133 156 236 162 212 240 260 270 305 286 231 254 227 239 166 200 249 264 14 60 277 265 242 200 277 265 289 261 260 261 246 248 240 239
338 335 335 335 334 334 336 337 334 332 330 329 327 325 323 318 317 313 314 310 311 308 313 318 344 356 139 110 195 256 196 88 86 109 122 127 120 138 186 153 157 126 109 147 190 188 174 142 148 97 94 226 126 258 157 219 146 73 200 309 286 299 261 241 271 263 253 280 194 203 250 282 286 132 244 266 138 17 312 291 283 250 262 268 262 250 248 235
314 317 325 334 339 336 334 334 331 329 329 328 325 323 320 317 314 310 304 302 297 294 299 309 330 27 68 109 220 233 325 124 118 109 111 119 109 197 192 174 168 156 145 167 229 232 155 160 134 131 213 128 257 121 255 238 26 141 27 308 291 336 314 203 230 256 160 253 150 165 183 299 213 218 246 248 299 263 248 269 285 280 261 261 271 268 251 238
290 312 332 336 334 331 332 330 329 328 327 325 324 322 319 316 311 306 299 293 284 279 277 292 99 326 62 299 240 240 43 119 113 106 66 77 108 67 65 68 124 149 166 142 206 218 172 141 128 155 215 140 172 232 131 89 330 45 55 151 324 328 301 289 195 44 150 251 155 144 282 220 257 237 253 269 317 341 298 272 266 275 280 269 264 269 268 255
315 342 325 333 330 329 328 327 327 326 325 324 323 322 318 315 311 304 295 278 272 263 266 182 121 106 123 243 267 267 146 116 104 89 108 181 80 3 37 32 68 54 337 116 67 99 134 125 129 164 98 173 251 271 59 345 12 260 250 103 252 337 266 299 126 117 304 203 178 107 254 245 268 275 259 278 88 265 272 271 279 279 282 282 267 260 268 271
316 321 339 326 329 326 323 325 326 324 323 323 323 320 319 314 315 313 300 278 251 235 198 99 109 90 99 267 206 310 148 125 130 231 197 122 110 62 14 44 47 36 79 100 131 88 124 106 97 112 247 356 28 321 296 22 357 347 355 274 322 197 283 302 257 178 247 308 168 131 258 252 253 266 282 52 35 65 267 275 273 278 277 280 283 276 265 265
305 330 320 325 325 322 321 324 326 322 319 320 322 319 316 318 343 345 350 140 114 143 134 110 72 107 35 297 232 137 74 202 286 8 352 119 155 148 158 114 117 34 46 24 67 110 54 99 112 189 247 2 187 127 18 13 333 344 206 260 255 224 261 334 291 207 238 203 270 180 249 297 283 262 280 271 171 331 281 282 280 276 278 279 276 275 271 272
269 296 301 317 320 322 323 327 326 321 317 319 322 314 317 334 39 38 54 104 103 85 132 179 118 155 197 235 125 331 259 300 151 22 14 23 117 142 111 81 73 70 58 69 29 68 350 84 289 33 34 169 127 97 341 351 278 262 122 237 194 243 314 287 303 287 16 176 231 236 249 242 262 287 297 298 280 287 287 281 282 275 274 274 276 274 273 271
263 286 297 297 317 323 326 327 326 322 319 321 325 310 309 301 266 50 62 51 27 110 296 139 126 31 279 3 266 227 255 259 48 182 46 302 124 116 102 109 56 96 85 52 354 119 308 101 35 195 350 62 121 93 149 246 227 241 238 267 287 276 224 250 321 265 338 226 212 340 257 258 270 281 279 276 285 271 260 272 278 279 277 274 271 273 275 273
255 253 270 289 319 326 326 327 325 324 322 323 324 311 355 43 38 110 85 32 69 8 44 227 123 151 207 208 313 17 168 204 137 69 158 113 37 98 75 83 100 127 129 89 255 126 356 64 33 47 239 205 214 187 200 232 233 258 258 251 279 283 254 233 232 275 243 288 295 274 271 273 270 271 273 279 273 274 268 266 275 276 272 274 272 272 271 272
260 267 268 294 314 325 326 326 325 325 328 332 7 5 17 18 5 357 338 13 208 194 226 206 220 280 318 285 208 317 292 71 155 349 148 284 121 93 36 83 38 61 112 187 171 185 117 149 166 201 228 222 216 203 217 244 48 74 208 257 264 273 282 260 268 259 265 300 252 260 272 280 278 273 280 276 280 277 273 264 263 276 282 274 275 269 268 272
261 264 272 302 327 319 324 324 326 325 327 335 335 58 57 168 36 311 310 264 248 266 258 246 204 214 234 101 351 149 138 291 62 76 212 119 129 118 199 74 60 148 265 171 146 308 77 184 226 223 231 226 229 240 289 303 292 272 271 274 275 229 277 261 289 267 205 215 279 251 277 276 281 277 270 269 269 268 264 280 285 267 271 274 272 270 276 280
262 269 268 266 287 308 321 320 324 327 330 68 51 78 161 213 184 220 104 314 317 244 242 253 42 274 299 287 247 157 75 354 1 33 339 154 24 154 277 115 152 199 184 116 31 89 160 196 231 235 232 76 69 79 138 197 239 250 237 264 305 264 261 275 252 292 291 156 269 260 273 280 282 273 263 251 253 261 283 270 264 265 269 280 268 286 311 290
251 257 260 257 254 287 315 318 324 341 8 28 38 80 96 234 56 317 78 185 267 267 227 237 226 239 272 298 252 114 235 220 250 204 208 133 60 215 141 128 172 148 130 183 195 144 265 273 242 244 132 224 273 126 126 333 211 228 269 282 258 267 317 309 265 347 311 220 297 303 299 291 267 260 259 267 261 263 265 263 257 253 249 253 287 351 294 302
247 245 249 251 243 264 300 322 323 26 26 117 118 133 220 105 102 62 72 237 276 308 227 223 185 189 228 209 238 161 187 259 123 266 280 140 156 186 115 163 154 136 208 196 208 200 219 214 258 191 195 181 226 239 229 250 265 203 224 241 266 265 246 225 273 347 315 288 241 308 281 282 245 271 321 288 275 252 262 270 266 256 277 297 285 279 268 291
255 247 246 253 225 216 278 336 31 342 143 54 290 253 180 152 123 171 68 316 3 275 260 319 108 246 222 24 3 160 260 89 225 251 257 127 137 100 226 188 117 227 205 204 245 294 292 263 117 71 86 163 191 262 237 211 258 259 221 211 235 250 273 268 291 9 7 317 344 19 329 308 227 194 242 288 331 309 260 238 253 318 357 334 296 274 349 85
260 252 248 238 196 197 277 352 312 147 58 208 215 211 180 138 152 140 97 49 292 264 351 229 142 290 87 57 15 250 115 228 6 236 8 222 206 152 86 169 142 239 195 137 207 204 222 297 162 212 133 119 169 207 238 156 239 347 266 207 235 247 252 273 291 17 295 197 329 40 70 293 155 236 268 257 266 277 267 248 274 339 298 287 281 285 337 52
263 254 250 218 197 166 106 212 157 112 10 308 181 170 197 147 210 128 2 310 319 207 153 282 75 261 87 314 73 105 118 274 319 39 31 317 169 293 165 239 18 51 166 157 33 267 167 347 81 74 111 140 161 243 240 165 183 254 255 177 195 220 238 247 234 206 251 259 294 203 160 258 300 190 225 229 184 246 256 286 290 279 282 281 287 322 19 12
30 273 213 196 193 168 216 121 75 287 212 136 131 143 153 160 85 77 82 328 296 332 82 271 187 318 82 335 54 159 208 338 45 306 225 304 26 350 168 214 188 186 185 116 227 251 153 170 135 124 120 132 203 208 168 163 158 220 263 136 149 199 213 160 171 213 245 0 306 342 79 294 258 263 347 144 191 252 261 271 292 294 293 282 292 39 38 2
27 24 348 192 154 114 94 151 135 211 148 135 133 127 124 111 110 91 108 204 236 78 336 62 306 40 357 337 36 56 341 14 150 277 311 322 34 140 253 250 174 184 288 177 229 243 297 164 200 157 143 212 217 220 169 159 194 258 126 88 80 72 65 100 106 110 314 39 274 184 194 233 281 306 147 349 307 284 262 263 276 301 301 308 319 30 39 304
26 18 353 148 117 107 49 84 205 177 122 127 138 130 103 41 27 60 293 233 32 295 110 223 99 261 40 94 303 8 250 334 132 319 27 152 322 34 9 142 117 99 236 346 286 242 202 333 157 123 196 216 157 140 167 184 146 129 94 67 15 39 41 33 66 88 35 272 260 180 206 171 280 319 179 138 210 215 262 308 296 312 305 303 29 30 336 305
24 15 5 163 151 185 131 301 221 134 137 125 131 156 50 38 118 127 236 227 351 228 21 34 234 8 130 128 240 345 132 333 14 80 76 13 7 43 346 319 57 45 37 348 278 278 156 66 153 250 63 79 99 82 39 65 143 121 70 129 26 340 16 29 343 37 180 269 253 203 190 181 220 302 313 247 273 227 214 325 303 305 297 296 7 8 360 6
13 4 357 224 311 202 154 241 158 137 139 143 123 47 62 274 22 211 217 348 336 276 131 269 349 105 72 350 120 218 176 23 234 140 169 177 155 162 197 183 169 358 324 208 263 26 253 208 246 304 245 156 134 97 331 42 54 103 89 31 260 280 23 321 25 300 197 222 252 355 151 345 247 236 257 297 292 266 194 239 278 278 291 326 4 349 346 24
359 355 303 235 91 221 308 101 116 122 96 57 59 46 86 148 250 146 280 123 258 114 271 88 186 153 183 77 279 247 267 181 198 210 117 225 141 259 249 199 188 180 250 255 285 338 281 276 153 236 346 208 141 163 225 291 197 137 167 163 107 265 233 253 265 255 305 291 287 182 70 251 281 298 220 241 252 274 282 237 272 290 279 353 331 347 349 14
342 326 249 234 200 189 124 134 131 135 114 105 98 70 86 242 237 112 174 210 222 8 72 105 45 54 107 199 246 156 229 238 150 218 166 184 102 268 297 253 166 278 145 240 272 197 311 300 255 153 253 181 175 197 197 171 157 194 133 158 186 161 162 253 201 247 260 243 317 281 109 234 1 241 263 241 304 330 342 324 275 287 332 256 294 328 19 16
324 300 176 223 220 205 141 146 145 149 104 67 65 149 223 241 125 225 228 275 286 328 294 38 106 22 293 347 281 274 198 305 124 97 192 144 237 191 215 234 232 136 116 256 240 71 212 244 259 215 311 146 183 218 100 103 76 180 160 78 77 233 133 230 228 236 272 276 301 234 215 208 233 318 296 237 285 325 315 338 14 12 20 30 36 29 25 20
349 357 202 223 195 203 157 150 144 137 122 122 160 204 227 199 221 176 227 173 3 187 267 337 103 341 254 279 309 103 313 185 290 128 263 200 258 240 227 222 177 182 159 196 181 255 198 271 268 20 69 183 199 138 220 137 229 204 101 195 215 162 151 269 345 316 86 37 252 176 291 272 292 288 275 293 113 43 13 20 34 37 31 43 37 34 37 30
53 343 165 195 206 191 156 147 151 130 131 167 200 238 232 258 190 162 250 168 238 138 92 242 250 187 239 264 218 349 244 84 267 137 268 187 305 203 233 261 176 198 206 173 272 205 252 275 115 120 255 262 85 194 65 25 144 104 170 234 119 137 116 142 233 343 207 238 252 194 252 273 340 282 359 51 347 15 38 32 19 23 29 42 42 45 40 36
11 160 258 227 208 154 152 156 139 137 125 166 224 237 93 229 256 199 146 132 274 356 102 168 272 158 273 233 286 167 278 147 282 99 251 192 255 142 140 236 216 186 223 355 177 286 111 293 267 231 188 329 2 74 329 333 343 178 187 280 142 255 255 292 87 252 255 243 264 216 242 257 245 267 291 283 283 354 359 20 31 21 23 34 45 45 39 34
183 134 293 247 215 153 150 152 155 147 149 199 222 253 221 239 127 173 200 140 163 120 226 241 219 290 164 213 224 210 177 194 245 208 262 248 208 210 189 212 326 126 350 146 266 264 62 253 293 341 116 172 64 97 229 221 358 55 24 335 222 100 197 153 191 202 177 264 260 251 207 244 206 243 248 267 305 24 37 44 41 46 38 30 29 30 30 31
153 99 268 305 207 142 144 151 154 171 191 213 219 227 120 61 235 275 214 183 258 165 248 238 194 246 246 248 189 273 269 181 174 242 181 280 237 276 249 353 192 21 19 339 215 151 287 153 246 110 303 22 234 188 217 174 197 194 193 247 273 203 229 113 330 167 220 250 239 264 252 228 226 234 290 307 22 52 71 62 37 26 31 34 33 30 25 25
260 107 259 67 124 137 139 150 176 201 205 237 246 241 226 250 57 310 309 222 214 329 217 174 167 215 185 355 274 154 239 210 204 210 197 288 230 293 290 156 203 42 48 39 89 287 11 288 248 279 296 222 248 227 197 189 186 180 179 212 207 209 255 250 251 191 216 231 244 243 252 241 274 289 304 350 53 62 55 72 56 36 31 26 25 26 27 22
137 115 264 14 147 151 147 177 220 184 213 207 220 191 247 355 275 247 169 12 171 241 30 142 266 239 232 262 243 267 272 258 231 236 250 233 242 218 313 29 57 176 168 241 216 236 163 187 195 237 230 248 251 249 188 171 125 159 179 259 214 227 232 236 261 217 251 231 275 265 287 225 187 237 284 63 71 66 52 73 68 44 32 25 21 28 33 39
117 188 284 302 207 167 159 214 202 211 218 257 12 298 189 293 198 222 83 178 343 168 9 231 213 231 254 230 233 245 203 251 194 240 208 241 237 237 319 352 23 10 48 297 357 267 92 78 310 262 264 314 293 288 192 130 231 315 272 218 121 243 229 243 252 260 258 241 244 246 245 294 342 7 59 89 92 80 68 62 66 50 36 21 22 14 13 12
45 329 326 323 339 198 182 195 209 208 227 261 236 253 209 199 251 297 193 236 166 172 182 211 336 219 258 236 227 253 213 270 226 245 258 246 260 148 354 2 313 160 155 258 182 274 2 272 184 306 299 295 295 321 321 4 67 171 205 244 221 284 315 272 309 83 265 206 257 263 259 299 239 334 13 77 85 70 74 69 66 63 26 25 19 16 10 5
81 321 278 301 3 286 208 211 213 217 221 233 228 243 249 238 219 241 247 254 208 204 355 275 224 175 228 136 198 229 192 202 288 293 200 255 249 25 1 23 357 68 349 33 109 282 263 206 281 278 279 276 276 267 269 288 270 247 289 299 314 201 257 328 284 266 262 180 221 240 266 227 290 329 310 1 52 103 92 95 89 94 88 33 22 8 8 3
184 118 294 356 1 42 287 187 142 211 195 242 256 245 253 258 272 92 169 256 207 199 225 240 161 143 228 274 242 248 259 182 191 256 3 263 280 3 191 312 69 169 180 65 29 40 245 320 215 239 250 259 265 276 321 337 271 268 265 312 287 276 234 240 271 259 253 275 264 262 274 282 279 286 290 41 33 48 60 64 84 76 78 112 87 25 6 1
249 109 165 240 353 320 245 37 343 283 206 213 215 196 234 236 252 290 176 246 263 183 246 201 200 197 256 214 229 260 236 260 223 247 244 256 255 241 322 133 47 20 304 104 352 84 201 241 221 251 254 265 276 277 283 280 279 278 276 273 274 265 260 254 241 256 282 293 259 238 256 266 275 271 295 27 38 90 98 114 82 89 52 34 348 338 355 4
80 256 94 245 147 234 194 249 179 246 271 330 262 281 256 269 212 235 353 190 117 79 184 325 228 216 224 227 256 264 180 240 171 228 83 274 6 317 2 355 63 329 49 358 337 117 176 257 261 272 272 273 275 285 304 311 284 292 284 292 286 288 276 259 258 265 267 253 268 274 278 278 272 270 114 76 44 38 102 130 179 203 250 310 345 358 4 354
119 313 165 326 139 295 84 357 6 347 286 251 288 292 255 249 257 237 172 327 28 314 185 250 210 227 216 239 215 225 228 292 263 214 205 220 202 172 287 333 177 59 55 44 9 216 205 253 260 264 282 288 297 291 296 293 294 285 279 275 275 272 269 268 273 270 259 260 264 271 267 263 278 110 124 99 27 135 161 184 268 266 305 306 330 353 2 349
312 70 304 27 77 14 317 16 56 17 281 255 254 231 251 251 260 267 237 218 263 265 122 252 261 272 202 209 187 242 246 283 284 274 248 147 281 174 210 214 228 344 52 8 335 295 168 274 347 51 297 282 283 286 286 283 289 286 292 286 268 261 260 262 266 265 266 263 261 260 262 267 78 99 110 110 138 313 121 233 219 234 260 305 333 349 351 344
219 71 112 108 30 206 80 4 106 133 273 232 230 253 247 246 257 71 244 25 227 266 47 15 19 4 12 288 234 223 128 149 92 59 4 1 264 333 84 281 95 294 324 344 67 314 327 273 343 334 304 278 272 280 299 309 296 283 276 273 265 259 264 258 253 254 255 262 266 274 266 253 115 127 337 125 102 323 203 296 241 225 254 283 331 332 335 334
59 298 95 104 201 214 133 111 20 97 232 233 177 246 200 82 80 281 58 106 67 103 100 73 15 49 319 60 2 50 7 38 145 196 275 267 246 277 231 257 298 258 311 192 236 279 222 288 307 290 283 269 273 291 328 331 320 292 260 248 255 262 251 258 264 269 262 293 275 262 273 62 142 125 67 310 94 291 159 283 321 280 229 236 275 301 319 315